Wind_Speed
13 16 19 22 25 27 29 33 35 35 36 38 37 34 28 23 22 20 20 19 17 19 22 27 27 28 27 28 23 21 20 20 20 21 27 27 22 21 18 18 11 8 7 6 3 6 4
14 17 21 23 26 28 31 35 35 36 39 41 39 37 32 25 23 23 20 21 20 19 20 24 28 28 29 29 27 24 23 22 23 22 27 30 27 25 21 19 14 11 8 5 6 3 4
17 19 21 24 28 31 33 35 35 37 41 42 42 42 34 28 25 24 21 21 22 22 21 22 26 28 30 30 30 29 27 25 25 24 29 32 30 28 24 20 18 14 11 8 6 2 4
22 23 26 28 31 34 36 35 36 38 42 42 43 40 34 29 27 24 23 21 22 23 23 23 25 28 29 28 32 32 31 28 27 25 28 31 33 31 26 22 20 16 14 11 8 7 7
27 29 30 31 33 35 38 38 38 42 43 44 42 38 32 29 27 24 22 22 22 22 23 25 27 28 28 29 31 34 33 33 30 29 28 30 34 32 28 23 22 18 16 15 12 12 12
26 28 30 32 34 37 40 40 40 44 46 46 43 37 32 29 26 22 21 20 21 21 23 24 29 29 28 30 30 34 35 36 33 30 30 31 33 31 27 23 21 19 18 15 14 13 13
28 30 31 32 35 40 39 40 43 46 47 44 38 35 32 27 24 20 19 19 20 20 23 24 25 26 27 27 28 31 35 36 36 33 31 30 31 27 24 25 24 24 19 17 17 15 15
30 32 31 33 37 38 41 43 46 47 44 39 35 32 28 25 21 18 16 17 19 19 21 23 24 25 27 26 28 29 33 34 36 36 32 31 30 29 29 27 26 24 21 20 18 17 17
31 31 31 33 37 38 43 45 47 46 40 37 34 30 26 22 19 16 14 15 16 17 17 20 22 24 28 28 28 28 29 31 32 35 33 30 32 33 29 27 27 25 23 22 20 19 20
31 30 31 35 37 40 45 47 47 43 37 35 32 29 23 18 16 10 11 12 13 14 14 17 20 24 28 28 28 30 30 30 29 31 33 36 36 36 34 30 28 28 26 25 24 23 22
31 31 33 37 38 42 45 47 45 41 35 32 30 26 19 15 11 7 8 7 10 10 11 15 20 25 27 29 28 29 31 31 28 27 33 35 36 37 36 34 30 28 29 29 29 28 27
32 32 34 38 39 43 45 46 43 38 34 33 28 21 14 10 8 6 6 7 9 9 10 14 19 24 26 28 28 30 29 31 30 29 31 36 37 38 37 36 35 34 33 33 32 32 31
32 34 35 38 40 43 44 43 40 36 36 32 22 14 11 8 5 4 4 7 8 10 9 12 18 22 25 26 29 28 30 31 31 30 31 33 39 38 36 38 38 37 36 36 35 36 33
32 34 36 40 41 44 43 41 39 38 37 28 16 15 11 5 2 4 7 10 12 8 6 8 13 19 21 24 24 26 28 31 33 31 30 32 34 34 34 34 32 33 35 38 38 36 30
34 36 39 40 42 43 41 39 39 38 32 21 14 14 5 5 3 5 5 12 9 9 10 8 6 10 13 18 19 21 25 29 31 32 32 31 32 33 33 34 32 34 37 37 38 35 33
36 38 40 40 40 41 39 38 38 36 25 15 12 11 6 4 3 2 7 9 9 10 9 8 7 9 12 15 17 18 21 23 27 28 28 29 29 31 32 32 33 34 33 37 40 38 35
36 38 39 40 39 38 37 37 36 28 21 13 11 6 3 2 3 2 5 9 9 8 11 10 11 9 8 12 16 19 18 18 18 20 26 27 30 31 32 33 33 34 35 37 38 37 36
38 39 39 39 37 36 35 34 34 24 21 14 9 2 1 4 2 2 5 6 4 5 12 14 14 14 12 9 8 16 19 17 16 17 22 26 29 30 32 34 34 34 33 33 36 38 38
38 40 39 37 35 34 33 32 32 24 22 12 4 3 4 4 2 3 4 3 1 2 6 10 13 18 15 15 14 13 13 15 14 17 19 24 29 30 33 36 36 36 35 36 35 35 37
38 40 39 36 33 34 32 31 29 24 18 9 4 5 5 4 5 5 4 4 6 5 3 6 6 8 11 16 17 19 18 16 12 14 15 19 23 29 34 35 38 38 37 38 37 37 34
38 40 37 33 31 32 30 29 26 21 14 7 6 6 6 6 5 4 4 4 3 5 5 4 5 5 6 9 13 22 24 22 19 17 17 18 19 24 30 37 38 40 40 39 41 40 36
38 38 34 32 31 31 29 28 23 17 10 5 5 7 8 7 6 2 4 5 2 1 2 3 3 9 10 8 8 12 17 18 20 20 21 22 23 21 27 33 39 41 41 39 40 42 42
37 35 31 29 30 29 28 27 21 15 9 2 4 8 9 10 8 6 5 5 5 7 8 7 8 9 7 7 10 11 16 18 19 21 19 19 19 25 28 32 32 41 45 43 40 42 40
36 32 28 27 29 27 26 25 20 12 7 3 3 7 9 9 9 7 6 7 9 8 10 9 8 8 9 10 12 13 15 17 18 18 18 16 15 22 27 35 36 39 43 43 42 39 39
35 28 25 26 27 26 25 24 18 11 6 2 4 6 7 7 7 7 7 9 9 8 7 8 11 11 12 14 15 16 18 19 17 19 21 20 17 18 20 23 35 36 37 42 35 41 41
33 26 23 26 26 24 23 23 13 10 5 3 7 8 7 9 5 6 9 8 5 6 7 8 10 12 14 15 16 17 18 19 22 22 19 22 21 20 22 21 24 35 35 35 38 35 35
27 24 23 24 23 22 20 17 11 8 3 9 13 13 11 11 5 4 2 3 6 9 10 11 12 13 14 15 17 20 23 23 24 23 24 22 24 26 24 23 19 20 23 27 31 36 36
24 22 22 23 21 19 16 14 10 2 12 14 14 12 8 6 3 1 2 4 6 8 8 9 10 11 11 13 18 23 24 23 26 27 26 26 25 24 25 26 25 22 20 22 25 27 28
23 21 21 21 19 17 14 11 3 13 12 12 14 11 9 7 4 1 1 3 4 7 9 9 9 11 11 14 19 16 14 16 18 24 28 28 26 26 26 23 25 24 27 26 25 24 32
Wind_Direction
6 1 355 352 354 354 352 350 349 345 343 342 342 342 335 318 307 298 287 279 269 256 247 240 236 230 233 236 233 231 233 227 224 218 211 204 199 209 204 207 202 173 164 141 83 44 114
356 353 350 349 349 348 345 343 341 338 339 340 341 339 332 315 299 291 282 275 268 260 252 240 238 232 225 225 223 221 225 222 220 215 212 206 203 206 206 195 205 187 184 186 138 37 229
349 345 345 346 345 342 339 338 336 335 335 336 338 334 327 314 297 286 279 268 262 257 249 242 237 236 230 220 216 213 217 218 217 214 212 205 206 210 206 192 204 193 189 189 217 158 240
345 343 342 341 339 339 337 334 332 332 331 334 335 332 323 308 296 288 280 266 257 253 244 236 237 236 235 227 218 211 211 214 216 211 215 212 206 209 208 195 203 202 196 195 184 185 253
339 337 336 335 335 331 333 331 330 330 332 334 334 327 317 307 296 288 280 272 260 252 245 233 229 231 229 226 222 213 207 211 212 211 209 213 211 212 206 199 197 205 203 201 199 221 219
331 330 329 330 330 331 328 328 327 328 329 332 329 321 314 308 297 288 279 269 257 246 240 233 227 225 223 223 219 218 208 207 210 211 209 208 210 213 209 204 200 209 211 208 206 205 213
324 322 322 325 327 329 329 329 327 329 329 330 325 318 312 308 297 286 278 261 250 240 235 230 228 225 222 222 216 215 216 208 209 208 208 210 209 209 210 206 206 208 211 203 206 216 226
324 322 322 325 328 328 329 329 331 332 332 330 324 320 314 304 291 287 275 261 251 242 233 226 223 219 217 217 214 213 215 214 210 208 207 205 206 207 205 202 208 210 212 207 207 208 215
324 323 323 325 326 326 328 332 334 334 333 329 324 318 310 301 296 296 282 264 254 243 231 223 220 216 210 209 207 208 210 215 214 212 204 203 207 210 206 204 205 210 213 211 211 210 216
326 324 323 324 325 327 331 335 335 336 333 327 323 314 306 301 302 299 276 261 254 244 227 217 210 209 207 206 206 202 203 207 215 212 202 201 206 212 210 206 204 205 214 214 214 214 216
326 323 323 326 326 329 334 336 336 337 332 326 321 311 305 305 303 292 263 254 249 241 221 205 205 203 204 203 202 203 201 203 204 211 207 202 204 212 217 211 208 208 215 217 220 218 220
325 323 324 327 328 333 335 338 340 339 333 329 320 308 304 305 293 262 242 240 239 230 211 200 199 201 202 202 200 200 203 203 200 207 204 203 204 209 213 213 213 211 216 221 224 227 225
324 324 327 331 332 335 339 340 342 340 333 327 315 311 312 299 289 213 218 216 216 220 215 195 195 201 201 200 203 202 200 207 206 206 210 207 206 206 211 214 212 214 215 224 227 230 233
326 329 331 334 335 338 341 342 343 342 336 326 322 319 311 291 276 183 207 201 210 211 196 201 203 205 202 198 199 203 204 204 208 207 206 215 215 211 210 217 218 219 219 226 231 234 236
330 331 333 335 338 340 341 343 345 345 339 331 333 328 315 307 213 189 194 206 204 201 178 193 212 205 205 199 199 202 203 205 210 211 210 212 219 214 209 214 213 213 218 223 228 236 236
331 332 335 337 340 340 343 344 347 348 348 347 342 339 318 304 194 179 210 189 172 175 196 208 217 200 187 190 197 202 212 210 213 213 214 216 218 219 216 210 214 216 214 217 227 232 232
332 333 337 340 340 341 345 345 347 355 1 2 352 344 313 201 210 214 173 163 169 170 179 203 216 201 206 195 198 204 213 219 221 218 214 215 216 217 221 217 216 215 216 219 225 233 238
334 335 338 340 340 343 345 346 348 353 352 347 342 6 134 173 185 165 163 165 165 173 193 200 206 210 212 218 215 216 219 225 230 222 218 214 217 220 221 224 222 221 218 225 227 231 235
334 336 339 340 340 344 345 345 346 348 347 343 0 90 153 174 190 110 114 68 351 250 223 228 221 202 206 211 224 230 238 234 228 229 226 223 216 216 223 225 223 226 224 223 229 233 235
331 336 339 338 340 344 344 344 346 347 354 3 64 107 138 163 139 119 90 60 35 44 162 182 174 192 212 226 236 239 235 236 239 237 232 229 225 220 218 225 226 227 227 229 231 234 237
329 334 335 337 340 342 342 343 343 347 359 31 96 137 150 169 154 166 161 130 90 66 108 174 199 208 242 234 238 230 234 235 240 240 243 238 231 227 225 224 224 226 228 229 232 237 240
330 334 334 335 339 340 341 341 341 345 359 45 123 153 169 191 192 213 189 186 197 108 134 147 201 236 246 260 251 221 225 236 243 247 257 238 242 239 231 229 226 227 228 233 232 235 239
328 332 332 333 337 340 338 339 339 341 351 18 156 184 187 197 209 227 209 196 240 277 283 260 224 211 207 222 243 237 223 224 235 241 251 257 252 235 231 225 227 229 228 229 234 235 239
327 333 329 332 335 338 335 337 335 335 343 328 189 208 203 204 209 220 240 267 275 275 290 285 277 280 260 237 229 233 242 248 247 248 243 250 242 236 233 227 234 233 229 231 234 238 243
326 330 327 331 332 335 334 335 329 324 328 289 210 215 208 210 207 237 264 276 282 288 295 284 288 285 277 274 269 252 241 241 244 247 244 247 233 242 238 231 233 232 230 227 234 231 238
325 326 324 327 331 331 334 333 322 321 317 210 178 187 193 180 210 240 267 291 298 299 300 294 288 284 282 278 273 267 261 253 245 244 244 238 237 234 249 245 241 227 231 235 233 236 229
319 321 322 324 328 328 335 335 324 324 254 163 164 166 175 182 223 276 308 323 311 304 305 308 305 299 299 295 288 282 275 265 255 244 238 237 237 238 240 244 244 226 231 234 234 233 240
317 315 317 321 325 323 330 333 324 234 152 151 150 145 151 146 130 177 316 315 319 323 325 323 321 317 311 303 296 286 276 269 260 251 241 234 232 235 237 235 238 233 231 236 238 230 226
314 314 312 319 321 317 322 327 257 165 160 150 142 138 141 147 158 120 348 342 9 2 354 342 333 323 316 323 327 305 282 284 268 249 240 237 232 230 232 233 235 236 236 234 230 228 226
Height
5889 5886 5882 5879 5875 5871 5867 5864 5860 5856 5852 5848 5844 5840 5837 5833 5831 5829 5827 5826 5826 5826 5827 5830 5832 5835 5838 5842 5847 5850 5853 5856 5859 5864 5869 5874 5878 5880 5884 5888 5892 5896 5898 5900 5901 5901 5904
5887 5884 5880 5876 5873 5869 5865 5860 5856 5852 5847 5843 5839 5835 5830 5827 5824 5822 5822 5821 5821 5821 5822 5823 5826 5829 5832 5837 5840 5844 5848 5852 5856 5860 5864 5870 5873 5877 5882 5887 5890 5894 5897 5899 5899 5901 5903
5885 5882 5878 5874 5870 5866 5861 5856 5852 5847 5842 5838 5833 5829 5824 5821 5817 5815 5814 5814 5814 5815 5816 5818 5819 5823 5825 5831 5833 5838 5843 5848 5852 5856 5859 5865 5870 5875 5881 5886 5888 5892 5896 5898 5900 5900 5901
5883 5879 5875 5871 5866 5862 5857 5852 5848 5843 5838 5832 5827 5822 5818 5814 5811 5809 5809 5807 5807 5808 5809 5812 5814 5816 5821 5825 5828 5832 5837 5842 5848 5852 5856 5861 5866 5871 5878 5885 5888 5891 5893 5896 5899 5901 5901
5880 5876 5872 5868 5863 5858 5853 5848 5843 5838 5832 5825 5820 5814 5810 5807 5803 5802 5802 5801 5801 5802 5803 5805 5807 5810 5814 5818 5822 5827 5831 5837 5842 5848 5852 5858 5863 5868 5876 5882 5886 5888 5891 5895 5898 5899 5900
5877 5873 5868 5864 5859 5854 5848 5842 5837 5831 5824 5818 5812 5807 5803 5799 5796 5795 5793 5793 5793 5793 5796 5798 5801 5805 5808 5811 5816 5823 5826 5832 5837 5843 5849 5854 5860 5866 5873 5879 5885 5887 5889 5892 5895 5898 5900
5873 5868 5864 5859 5854 5849 5843 5837 5831 5824 5818 5812 5805 5800 5795 5792 5789 5788 5787 5785 5786 5787 5788 5792 5795 5800 5802 5807 5812 5817 5823 5828 5834 5838 5845 5851 5857 5865 5871 5876 5880 5883 5887 5891 5893 5895 5899
5868 5863 5859 5854 5849 5843 5838 5832 5825 5818 5811 5804 5798 5793 5788 5784 5782 5782 5780 5779 5779 5781 5782 5785 5789 5794 5797 5801 5807 5812 5819 5825 5831 5835 5841 5848 5855 5860 5865 5870 5876 5881 5884 5887 5890 5893 5896
5864 5859 5854 5849 5844 5838 5832 5825 5818 5811 5804 5797 5791 5785 5781 5778 5777 5776 5776 5775 5775 5776 5778 5781 5785 5789 5792 5797 5801 5808 5814 5820 5827 5833 5839 5846 5851 5855 5861 5867 5872 5877 5881 5884 5886 5889 5893
5860 5854 5850 5845 5839 5833 5827 5819 5812 5804 5798 5791 5785 5779 5775 5772 5772 5771 5771 5771 5771 5772 5774 5777 5780 5784 5788 5792 5798 5802 5808 5815 5822 5828 5834 5839 5843 5849 5856 5862 5868 5873 5876 5881 5883 5886 5889
5856 5850 5845 5840 5834 5828 5820 5813 5806 5799 5792 5784 5778 5772 5770 5767 5767 5767 5767 5768 5768 5770 5772 5774 5776 5780 5785 5789 5794 5799 5803 5810 5817 5824 5830 5834 5838 5844 5850 5858 5864 5869 5872 5876 5879 5882 5884
5851 5846 5840 5835 5829 5822 5815 5807 5800 5793 5786 5779 5771 5766 5764 5764 5764 5765 5765 5766 5767 5770 5770 5772 5773 5777 5782 5787 5791 5795 5801 5807 5812 5818 5823 5827 5832 5837 5844 5851 5857 5862 5866 5870 5874 5877 5881
5846 5841 5835 5830 5823 5816 5809 5801 5794 5787 5779 5772 5766 5763 5762 5761 5762 5762 5764 5765 5767 5767 5770 5772 5773 5775 5779 5785 5789 5794 5798 5803 5809 5815 5821 5824 5827 5832 5838 5843 5849 5855 5861 5865 5870 5872 5877
5842 5836 5831 5824 5817 5811 5803 5796 5788 5781 5773 5766 5763 5762 5760 5760 5760 5762 5763 5764 5765 5768 5770 5772 5773 5775 5778 5782 5787 5792 5796 5800 5805 5810 5816 5821 5827 5831 5834 5838 5847 5853 5857 5861 5864 5868 5876
5837 5831 5825 5819 5812 5805 5798 5790 5783 5775 5768 5762 5761 5759 5758 5760 5760 5761 5763 5764 5766 5768 5771 5773 5774 5777 5779 5783 5786 5789 5793 5797 5801 5807 5813 5818 5823 5827 5828 5833 5840 5844 5847 5854 5858 5864 5870
5832 5826 5820 5814 5807 5800 5793 5786 5778 5771 5764 5760 5759 5758 5758 5759 5760 5761 5762 5765 5767 5769 5772 5774 5776 5777 5780 5783 5786 5789 5791 5795 5799 5804 5810 5816 5820 5824 5826 5829 5833 5838 5845 5848 5850 5856 5862
5827 5822 5816 5809 5803 5796 5789 5782 5775 5769 5763 5760 5758 5757 5758 5759 5760 5762 5763 5765 5767 5769 5771 5774 5776 5778 5780 5783 5785 5788 5790 5794 5798 5802 5807 5811 5816 5820 5824 5826 5828 5833 5837 5841 5846 5852 5856
5823 5817 5811 5805 5799 5792 5785 5778 5772 5767 5763 5759 5756 5757 5757 5759 5761 5763 5764 5766 5768 5770 5771 5773 5775 5777 5780 5782 5784 5786 5789 5792 5795 5799 5803 5807 5812 5815 5818 5821 5825 5828 5833 5837 5840 5846 5850
5819 5813 5807 5801 5795 5788 5782 5775 5769 5764 5760 5757 5755 5757 5758 5760 5762 5764 5765 5767 5767 5767 5769 5771 5773 5776 5778 5780 5782 5784 5786 5789 5792 5795 5798 5801 5806 5810 5813 5817 5820 5823 5828 5832 5836 5840 5844
5814 5808 5803 5797 5792 5785 5778 5772 5767 5762 5757 5756 5755 5757 5759 5761 5763 5764 5765 5766 5766 5766 5767 5769 5771 5773 5775 5777 5778 5779 5782 5785 5788 5791 5794 5797 5800 5804 5808 5810 5815 5819 5823 5827 5831 5835 5839
5809 5804 5798 5793 5788 5781 5775 5770 5764 5760 5757 5755 5756 5758 5759 5762 5763 5765 5766 5767 5768 5768 5768 5769 5770 5771 5772 5773 5773 5775 5778 5781 5783 5786 5788 5791 5795 5798 5801 5803 5807 5811 5816 5821 5826 5829 5834
5804 5799 5793 5788 5784 5777 5771 5766 5762 5758 5756 5755 5756 5757 5758 5761 5763 5765 5766 5768 5768 5769 5770 5770 5771 5771 5771 5771 5771 5771 5774 5777 5779 5781 5782 5785 5788 5792 5795 5797 5800 5804 5808 5813 5818 5822 5827
5799 5794 5788 5784 5779 5773 5768 5763 5759 5756 5755 5755 5755 5757 5758 5760 5762 5764 5765 5766 5766 5767 5767 5768 5768 5769 5770 5770 5770 5771 5772 5773 5775 5776 5777 5778 5782 5785 5787 5789 5792 5798 5801 5805 5809 5815 5819
5793 5788 5784 5779 5774 5769 5764 5760 5756 5754 5754 5753 5753 5755 5757 5759 5761 5762 5763 5763 5764 5764 5764 5764 5764 5764 5766 5767 5767 5767 5768 5769 5770 5771 5772 5774 5775 5778 5779 5781 5784 5787 5792 5798 5804 5809 5813
5787 5783 5779 5774 5770 5765 5760 5755 5752 5751 5751 5750 5750 5753 5755 5756 5759 5760 5761 5761 5761 5761 5762 5761 5761 5761 5761 5761 5762 5762 5763 5764 5764 5765 5766 5768 5770 5771 5773 5774 5778 5780 5785 5791 5794 5800 5803
5782 5778 5774 5770 5766 5760 5756 5751 5748 5748 5747 5747 5749 5751 5753 5756 5757 5758 5758 5759 5759 5759 5759 5759 5758 5758 5757 5756 5756 5756 5756 5758 5758 5759 5760 5762 5764 5767 5767 5770 5771 5775 5778 5782 5787 5792 5794
5775 5772 5768 5765 5761 5756 5753 5749 5746 5744 5744 5745 5746 5749 5752 5754 5755 5756 5757 5758 5757 5757 5756 5755 5754 5753 5752 5752 5751 5751 5750 5751 5751 5752 5754 5755 5757 5759 5761 5763 5767 5769 5772 5775 5780 5788 5788
5768 5766 5763 5760 5757 5752 5749 5746 5745 5742 5743 5745 5746 5748 5752 5753 5755 5756 5756 5756 5756 5755 5754 5753 5752 5750 5749 5747 5745 5743 5741 5741 5742 5744 5746 5748 5751 5753 5755 5759 5761 5764 5767 5770 5773 5776 5780
5762 5760 5758 5755 5752 5749 5746 5743 5743 5743 5744 5745 5747 5749 5752 5753 5754 5755 5755 5755 5754 5753 5751 5750 5749 5747 5745 5743 5739 5736 5735 5734 5733 5734 5737 5741 5744 5747 5750 5752 5754 5757 5760 5762 5766 5769 5773